Weather History for Jefferson, GA

Change the Weather History Date:

Sunday, January 26, 2014

  Actual Average (KGVL) Record (KGVL)
Temperature  
Mean Temperature 42 °F 42 °F  
Max Temperature 55 °F 51 °F 71 °F (1989)
Min Temperature 30 °F 34 °F 0 °F (1940)
Degree Days  
Heating Degree Days 22 23  
Month to date heating degree days 614  
Since 1 July heating degree days 1810  
Moisture  
Dew Point 14 °F    
Average Humidity 33    
Maximum Humidity 55    
Minimum Humidity 17    
Precipitation  
Precipitation 0.00 in 0.20 in 2.80 in (1976)
Month to date precipitation 4.05  
Year to date precipitation 4.05  
Snow  
Snow 0.00 in - - ()
Month to date snowfall  
Since 1 July snowfall  
Snow Depth -    
Sea Level Pressure  
Sea Level Pressure 29.93 in    
Wind  
Wind Speed 6 mph (WSW)    
Max Wind Speed 15 mph    
Max Gust Speed 20 mph    
Visibility 10 miles    
Events      
T = Trace of Precipitation, MM = Missing Value Source: NWS Daily Summary

Daily Weather History Graph

Daily Weather History Graph

Search for Another Location

Airport:

Trip Planner

Search our weather history database for the weather conditions in past years. The results will help you decide how hot, cold, wet, or windy it might be!

Date:

Astronomy

Jan. 26, 2014 Rise Set
Actual Time 7:35 AM EST 5:58 PM EST
Civil Twilight 7:08 AM EST 6:25 PM EST
Nautical Twilight 6:38 AM EST 6:55 PM EST
Astronomical Twilight 6:08 AM EST 7:25 PM EST
Moon 3:10 AM EST (1/26) 1:48 PM EST (1/26)
Length of Visible Light 11h 16m
Length of Day
10h 23m
Waning Crescent, 24% of the Moon is Illuminated
Jan 26
Waning Crescent
Jan 30
New
Feb 6
First Quarter
Feb 14
Full
Feb 22
Last Quarter

Hourly Weather History & Observations

Time (EST) Temp. Windchill Dew Point Humidity Pressure Visibility Wind Dir Wind Speed Gust Speed Precip Events Conditions
12:15 AM 35.6 °F 30.7 °F 8.6 °F 33% 29.94 in 10.0 mi West 5.8 mph - N/A   Clear
12:35 AM 35.6 °F 30.7 °F 10.4 °F 35% 29.94 in 10.0 mi West 5.8 mph - N/A   Clear
12:55 AM 33.8 °F 29.6 °F 10.4 °F 38% 29.94 in 10.0 mi West 4.6 mph - N/A   Clear
1:15 AM 33.8 °F 28.6 °F 10.4 °F 38% 29.94 in 10.0 mi WSW 5.8 mph - N/A   Clear
1:35 AM 33.8 °F 28.6 °F 10.4 °F 38% 29.93 in 10.0 mi West 5.8 mph - N/A   Clear
1:55 AM 33.8 °F 27.7 °F 10.4 °F 38% 29.93 in 10.0 mi West 6.9 mph - N/A   Clear
2:15 AM 32.0 °F 26.4 °F 12.2 °F 44% 29.92 in 10.0 mi West 5.8 mph - N/A   Clear
2:35 AM 33.8 °F 29.6 °F 12.2 °F 41% 29.92 in 10.0 mi WSW 4.6 mph - N/A   Clear
2:55 AM 32.0 °F 27.5 °F 12.2 °F 44% 29.93 in 10.0 mi SW 4.6 mph - N/A   Clear
3:15 AM 32.0 °F 28.7 °F 12.2 °F 44% 29.93 in 10.0 mi SW 3.5 mph - N/A   Clear
3:35 AM 32.0 °F 25.6 °F 12.2 °F 44% 29.94 in 10.0 mi WSW 6.9 mph - N/A   Clear
3:55 AM 32.0 °F 26.4 °F 14.0 °F 48% 29.94 in 10.0 mi West 5.8 mph - N/A   Clear
4:15 AM 32.0 °F 27.5 °F 14.0 °F 48% 29.93 in 10.0 mi WNW 4.6 mph - N/A   Clear
4:35 AM 32.0 °F 26.4 °F 14.0 °F 48% 29.92 in 10.0 mi West 5.8 mph - N/A   Clear
4:55 AM 32.0 °F 25.6 °F 14.0 °F 48% 29.93 in 10.0 mi West 6.9 mph - N/A   Clear
5:15 AM 32.0 °F 24.8 °F 14.0 °F 48% 29.93 in 10.0 mi West 8.1 mph - N/A   Clear
5:35 AM 32.0 °F 26.4 °F 14.0 °F 48% 29.93 in 10.0 mi West 5.8 mph - N/A   Clear
5:55 AM 32.0 °F 27.5 °F 14.0 °F 48% 29.94 in 10.0 mi West 4.6 mph - N/A   Clear
6:15 AM 32.0 °F 26.4 °F 14.0 °F 48% 29.94 in 10.0 mi West 5.8 mph - N/A   Clear
6:35 AM 32.0 °F 25.6 °F 14.0 °F 48% 29.96 in 10.0 mi WSW 6.9 mph - N/A   Clear
6:55 AM 30.2 °F 25.4 °F 14.0 °F 51% 29.96 in 10.0 mi West 4.6 mph - N/A   Clear
7:15 AM 32.0 °F 27.5 °F 15.8 °F 51% 29.96 in 10.0 mi West 4.6 mph - N/A   Clear
7:35 AM 30.2 °F 24.3 °F 15.8 °F 55% 29.96 in 10.0 mi West 5.8 mph - N/A   Clear
7:55 AM 32.0 °F 26.4 °F 15.8 °F 51% 29.96 in 10.0 mi West 5.8 mph - N/A   Clear
8:15 AM 32.0 °F 26.4 °F 15.8 °F 51% 29.96 in 10.0 mi West 5.8 mph - N/A   Clear
8:35 AM 33.8 °F 27.7 °F 15.8 °F 48% 29.97 in 10.0 mi WSW 6.9 mph - N/A   Clear
8:55 AM 33.8 °F 27.0 °F 15.8 °F 48% 29.98 in 10.0 mi West 8.1 mph - N/A   Clear
9:15 AM 35.6 °F 30.7 °F 15.8 °F 44% 29.98 in 10.0 mi West 5.8 mph - N/A   Clear
9:35 AM 37.4 °F 32.8 °F 15.8 °F 41% 29.98 in 10.0 mi West 5.8 mph - N/A   Clear
9:55 AM 39.2 °F 33.6 °F 15.8 °F 39% 29.99 in 10.0 mi WSW 8.1 mph - N/A   Clear
10:15 AM 41.0 °F 35.2 °F 14.0 °F 33% 29.99 in 10.0 mi West 9.2 mph - N/A   Clear
10:35 AM 41.0 °F 36.4 °F 14.0 °F 33% 29.99 in 10.0 mi SW 6.9 mph - N/A   Clear
10:55 AM 44.6 °F 39.7 °F 12.2 °F 27% 30.00 in 10.0 mi West 9.2 mph - N/A   Clear
11:15 AM 44.6 °F 40.2 °F 12.2 °F 27% 29.99 in 10.0 mi SW 8.1 mph - N/A   Clear
11:35 AM 46.4 °F 41.9 °F 12.2 °F 25% 29.99 in 10.0 mi WSW 9.2 mph 16.1 mph N/A   Clear
11:55 AM 46.4 °F 41.9 °F 12.2 °F 25% 29.98 in 10.0 mi West 9.2 mph - N/A   Clear
12:15 PM 50.0 °F - 10.4 °F 20% 29.97 in 10.0 mi WSW 9.2 mph - N/A   Clear
12:35 PM 51.8 °F - 10.4 °F 19% 29.95 in 10.0 mi West 9.2 mph - N/A   Clear
12:55 PM 51.8 °F - 10.4 °F 19% 29.93 in 10.0 mi WSW 9.2 mph - N/A   Clear
1:15 PM 51.8 °F - 10.4 °F 19% 29.93 in 10.0 mi WSW 15.0 mph 19.6 mph N/A   Clear
1:35 PM 51.8 °F - 10.4 °F 19% 29.92 in 10.0 mi West 10.4 mph 18.4 mph N/A   Clear
1:55 PM 53.6 °F - 10.4 °F 18% 29.91 in 10.0 mi West 12.7 mph 17.3 mph N/A   Clear
2:15 PM 53.6 °F - 10.4 °F 18% 29.91 in 10.0 mi West 11.5 mph 17.3 mph N/A   Clear
2:35 PM 53.6 °F - 10.4 °F 18% 29.90 in 10.0 mi SW 10.4 mph - N/A   Clear
2:55 PM 53.6 °F - 10.4 °F 18% 29.89 in 10.0 mi West 12.7 mph - N/A   Clear
3:15 PM 55.4 °F - 10.4 °F 17% 29.89 in 10.0 mi SW 10.4 mph 16.1 mph N/A   Clear
3:35 PM 55.4 °F - 10.4 °F 17% 29.89 in 10.0 mi WSW 9.2 mph - N/A   Clear
3:55 PM 55.4 °F - 10.4 °F 17% 29.89 in 10.0 mi West 10.4 mph 17.3 mph N/A   Clear
4:15 PM 55.4 °F - 10.4 °F 17% 29.89 in 10.0 mi West 9.2 mph - N/A   Clear
4:35 PM 55.4 °F - 10.4 °F 17% 29.89 in 10.0 mi West 6.9 mph - N/A   Clear
4:55 PM 53.6 °F - 10.4 °F 18% 29.89 in 10.0 mi West 8.1 mph - N/A   Clear
5:15 PM 53.6 °F - 10.4 °F 18% 29.89 in 10.0 mi WSW 6.9 mph - N/A   Clear
5:35 PM 53.6 °F - 12.2 °F 19% 29.89 in 10.0 mi West 5.8 mph - N/A   Clear
5:55 PM 51.8 °F - 14.0 °F 22% 29.89 in 10.0 mi WSW 3.5 mph - N/A   Clear
6:15 PM 51.8 °F - 14.0 °F 22% 29.90 in 10.0 mi West 4.6 mph - N/A   Clear
6:35 PM 51.8 °F - 14.0 °F 22% 29.90 in 10.0 mi West 4.6 mph - N/A   Clear
6:55 PM 51.8 °F - 14.0 °F 22% 29.91 in 10.0 mi West 3.5 mph - N/A   Clear
7:15 PM 51.8 °F - 14.0 °F 22% 29.91 in 10.0 mi South 3.5 mph - N/A   Clear
7:35 PM 50.0 °F - 14.0 °F 24% 29.91 in 10.0 mi SSW 3.5 mph - N/A   Clear
7:55 PM 50.0 °F - 15.8 °F 26% 29.91 in 10.0 mi SW 3.5 mph - N/A   Clear
8:15 PM 50.0 °F - 15.8 °F 26% 29.91 in 10.0 mi Calm Calm - N/A   Clear
8:35 PM 50.0 °F - 15.8 °F 26% 29.91 in 10.0 mi SSW 3.5 mph - N/A   Clear
8:55 PM 50.0 °F - 15.8 °F 26% 29.91 in 10.0 mi South 3.5 mph - N/A   Clear
9:15 PM 50.0 °F - 15.8 °F 26% 29.91 in 10.0 mi SSW 3.5 mph - N/A   Clear
9:35 PM 50.0 °F - 17.6 °F 28% 29.91 in 10.0 mi South 3.5 mph - N/A   Clear
9:55 PM 50.0 °F - 17.6 °F 28% 29.91 in 10.0 mi South 4.6 mph - N/A   Clear
10:15 PM 50.0 °F - 17.6 °F 28% 29.91 in 10.0 mi SSW 3.5 mph - N/A   Clear
10:35 PM 48.2 °F - 19.4 °F 32% 29.91 in 10.0 mi SW 3.5 mph - N/A   Clear
10:55 PM 48.2 °F - 19.4 °F 32% 29.91 in 10.0 mi SSW 4.6 mph - N/A   Clear
11:15 PM 46.4 °F 44.3 °F 19.4 °F 34% 29.91 in 10.0 mi SSW 4.6 mph - N/A   Scattered Clouds
11:35 PM 46.4 °F 44.3 °F 21.2 °F 37% 29.91 in 10.0 mi SW 4.6 mph - N/A   Scattered Clouds
11:55 PM 46.4 °F 44.3 °F 19.4 °F 34% 29.91 in 10.0 mi SW 4.6 mph - N/A   Clear